Location: Bergheim
(50.9593°N, 6.6400°E)
Time: 03:00:03
(UTC+01:00)

ISS - Pass Details

Date: 06 October 2020
Orbit: 417 x 420 km, 51.6° (Epoch: 25 October)

Event Time Altitude Azimuth Distance (km) Brightness Sun altitude
Rises 20:20:24 0° 281° (W) 2,369 2.1 -13.6°
Reaches altitude 10° 20:23:11 10° 256° (WSW) 1,501 0.2 -14.0°
Maximum altitude 20:25:07 15° 221° (SW) 1,253 -0.9 -14.3°
Drops below altitude 10° 20:27:02 10° 186° (S) 1,496 -1.0 -14.6°
Enters shadow 20:28:37 - 169° (S) 1,946 -0.6 -14.8°
